,,,PA_Meas_PMT16A,,PR_Meas_QMR101_102,,RH_Meas_QMH101,,SR_Meas_QMS101,,TA_Meas_QMH101,,GenWind,,GenWind,
date,time,status,PA,status,PR,status,RH,status,SR,status,TA,status,DirAvg,status,SpdAvg,
2011-10-29, 00:00:04,VALID,1001.98,VALID,0,VALID,94.3082,VALID,0,VALID,23.0189,VALID,18,VALID,0.267188,
2011-10-29, 00:01:04,VALID,1001.93,VALID,0,VALID,94.2243,VALID,0,VALID,23.0383,VALID,18,VALID,0.385938,
2011-10-29, 00:02:04,VALID,1001.92,VALID,0,VALID,94.209,VALID,0,VALID,23.0383,VALID,18,VALID,0.561719,
2011-10-29, 00:03:04,VALID,1001.94,VALID,0,VALID,94.2396,VALID,0,VALID,23.0772,VALID,18,VALID,0.2625,
2011-10-29, 00:04:04,VALID,1001.92,VALID,0,VALID,94.2167,VALID,0,VALID,23.079,VALID,18,VALID,0.370313,
2011-10-29, 00:05:04,VALID,1001.94,VALID,0,VALID,94.2167,VALID,0.0815089,VALID,23.1179,VALID,18,VALID,0.48125,
2011-10-29, 00:06:04,VALID,1001.95,VALID,0,VALID,94.2472,VALID,0.0815089,VALID,23.1568,VALID,19,VALID,0.388672,
2011-10-29, 00:07:04,VALID,1001.98,VALID,0,VALID,94.1862,VALID,0,VALID,23.1551,VALID,19,VALID,0.396484,
2011-10-29, 00:08:04,VALID,1001.97,VALID,0,VALID,94.0488,VALID,0,VALID,23.1745,VALID,19,VALID,0.279687,
2011-10-29, 00:09:04,VALID,1001.96,VALID,0,VALID,93.8657,VALID,0.0815089,VALID,23.194,VALID,19,VALID,0.572266,
2011-10-29, 00:10:04,VALID,1001.97,VALID,0,VALID,93.7895,VALID,0,VALID,23.2134,VALID,20,VALID,0.639063,
2011-10-29, 00:11:04,VALID,1001.94,VALID,0,VALID,93.6445,VALID,0,VALID,23.194,VALID,23,VALID,0.535156,
2011-10-29, 00:12:04,VALID,1001.92,VALID,0,VALID,93.5224,VALID,0.0815089,VALID,23.1745,VALID,23,VALID,0.549609,
2011-10-29, 00:13:04,VALID,1001.89,VALID,0,VALID,93.5224,VALID,0,VALID,23.1745,VALID,23,VALID,0.754297,
2011-10-29, 00:14:04,VALID,1001.87,VALID,0,VALID,93.3241,VALID,0,VALID,23.1745,VALID,23,VALID,0.728516,
2011-10-29, 00:15:04,VALID,1001.87,VALID,0,VALID,93.2249,VALID,0,VALID,23.1551,VALID,23,VALID,0.562109,
2011-10-29, 00:16:04,VALID,1001.85,VALID,0,VALID,93.2249,VALID,0,VALID,23.1568,VALID,23,VALID,0.669531,
2011-10-29, 00:17:04,VALID,1001.86,VALID,0,VALID,93.1181,VALID,0,VALID,23.1162,VALID,23,VALID,0.723047,
2011-10-29, 00:18:04,VALID,1001.81,VALID,0,VALID,93.0647,VALID,0.0815089,VALID,23.1162,VALID,23,VALID,0.525,
2011-10-29, 00:19:04,VALID,1001.85,VALID,0,VALID,93.1563,VALID,0,VALID,23.0755,VALID,23,VALID,0.367969,
2011-10-29, 00:20:04,VALID,1001.82,VALID,0,VALID,93.0876,VALID,0.0815089,VALID,23.1162,VALID,23,VALID,0.317969,
2011-10-29, 00:21:04,VALID,1001.81,VALID,0,VALID,93.0495,VALID,0.0815089,VALID,23.0967,VALID,23,VALID,0.2125,
2011-10-29, 00:22:04,VALID,1001.78,VALID,0,VALID,93.2325,VALID,0.0815089,VALID,23.1179,VALID,40,VALID,0.557031,
2011-10-29, 00:23:04,VALID,1001.78,VALID,0,VALID,93.4156,VALID,0,VALID,23.1356,VALID,50,VALID,0.179688,
2011-10-29, 00:24:04,VALID,1001.77,VALID,0,VALID,93.347,VALID,0,VALID,23.1763,VALID,50,VALID,0.282422,
2011-10-29, 00:25:04,VALID,1001.75,VALID,0,VALID,93.3317,VALID,0.0815089,VALID,23.1551,VALID,50,VALID,0.355078,
2011-10-29, 00:26:04,VALID,1001.72,VALID,0,VALID,93.2936,VALID,0,VALID,23.1763,VALID,50,VALID,0.496094,
2011-10-29, 00:27:04,VALID,1001.75,VALID,0,VALID,93.4385,VALID,0,VALID,23.1533,VALID,50,VALID,0.451562,
2011-10-29, 00:28:04,VALID,1001.72,VALID,0,VALID,93.469,VALID,0.0815089,VALID,23.194,VALID,50,VALID,0.364844,
2011-10-29, 00:29:04,VALID,1001.72,VALID,0,VALID,93.3851,VALID,0,VALID,23.194,VALID,50,VALID,0.395312,
2011-10-29, 00:30:04,VALID,1001.76,VALID,0,VALID,93.3088,VALID,0,VALID,23.2152,VALID,50,VALID,0.353125,
2011-10-29, 00:31:04,VALID,1001.72,VALID,0,VALID,93.3775,VALID,0,VALID,23.2541,VALID,50,VALID,0.560547,
2011-10-29, 00:32:04,VALID,1001.71,VALID,0,VALID,93.2936,VALID,0,VALID,23.2329,VALID,50,VALID,0.268359,
2011-10-29, 00:33:04,VALID,1001.7,VALID,0,VALID,93.3317,VALID,0.0815089,VALID,23.2329,VALID,48,VALID,0.445313,
2011-10-29, 00:34:04,VALID,1001.65,VALID,0,VALID,93.1334,VALID,0,VALID,23.2347,VALID,48,VALID,0.612891,
2011-10-29, 00:35:04,VALID,1001.7,VALID,0,VALID,92.9808,VALID,0.0815089,VALID,23.194,VALID,46,VALID,0.573438,
2011-10-29, 00:36:04,VALID,1001.67,VALID,0,VALID,93.0723,VALID,0,VALID,23.1745,VALID,39,VALID,0.690234,
2011-10-29, 00:37:04,VALID,1001.63,VALID,0,VALID,93.0647,VALID,0,VALID,23.1745,VALID,39,VALID,0.348047,
2011-10-29, 00:38:04,VALID,1001.67,VALID,0,VALID,93.0495,VALID,0.0815089,VALID,23.1745,VALID,38,VALID,0.497266,
2011-10-29, 00:39:04,VALID,1001.64,VALID,0,VALID,92.9732,VALID,0.0815089,VALID,23.1551,VALID,38,VALID,0.360156,
2011-10-29, 00:40:04,VALID,1001.64,VALID,0,VALID,93.0723,VALID,0,VALID,23.1551,VALID,38,VALID,0.331641,
2011-10-29, 00:41:04,VALID,1001.62,VALID,0,VALID,93.1791,VALID,0,VALID,23.1745,VALID,38,VALID,0.201172,
2011-10-29, 00:42:04,VALID,1001.62,VALID,0,VALID,93.1944,VALID,0,VALID,23.2152,VALID,38,VALID,0.278125,
2011-10-29, 00:43:04,VALID,1001.6,VALID,0,VALID,93.202,VALID,0,VALID,23.2347,VALID,38,VALID,0.273047,
2011-10-29, 00:44:04,VALID,1001.6,VALID,0,VALID,93.2097,VALID,0,VALID,23.2541,VALID,38,VALID,0.271094,
2011-10-29, 00:45:04,VALID,1001.6,VALID,0,VALID,93.2402,VALID,0,VALID,23.2541,VALID,38,VALID,0.411328,
2011-10-29, 00:46:04,VALID,1001.57,VALID,0,VALID,93.202,VALID,0,VALID,23.2718,VALID,40,VALID,0.295703,
2011-10-29, 00:47:04,VALID,1001.6,VALID,0,VALID,93.0876,VALID,0,VALID,23.2718,VALID,40,VALID,0.306641,
2011-10-29, 00:48:04,VALID,1001.56,VALID,0,VALID,93.0571,VALID,0,VALID,23.3125,VALID,40,VALID,0.337891,
2011-10-29, 00:49:04,VALID,1001.58,VALID,0,VALID,92.9655,VALID,0,VALID,23.3107,VALID,40,VALID,0.204297,
2011-10-29, 00:50:04,VALID,1001.57,VALID,0,VALID,92.9732,VALID,0,VALID,23.3107,VALID,40,VALID,0.137891,
2011-10-29, 00:51:04,VALID,1001.59,VALID,0,VALID,92.9503,VALID,0,VALID,23.3497,VALID,40,VALID,0.392578,
2011-10-29, 00:52:04,VALID,1001.57,VALID,0,VALID,92.8053,VALID,0,VALID,23.3674,VALID,40,VALID,0.485938,
2011-10-29, 00:53:04,VALID,1001.57,VALID,0,VALID,92.5993,VALID,0.0815089,VALID,23.4275,VALID,40,VALID,0.385156,
2011-10-29, 00:54:04,VALID,1001.56,VALID,0,VALID,92.3095,VALID,0,VALID,23.408,VALID,40,VALID,0.459375,
2011-10-29, 00:55:04,VALID,1001.55,VALID,0,VALID,92.2179,VALID,0,VALID,23.3886,VALID,40,VALID,0.441406,
2011-10-29, 00:56:04,VALID,1001.56,VALID,0,VALID,92.2561,VALID,0,VALID,23.3284,VALID,40,VALID,0.4375,
2011-10-29, 00:57:04,VALID,1001.52,VALID,0,VALID,92.3171,VALID,0,VALID,23.332,VALID,40,VALID,0.508594,
2011-10-29, 00:58:04,VALID,1001.52,VALID,0,VALID,92.5154,VALID,0,VALID,23.2913,VALID,40,VALID,0.357031,
2011-10-29, 00:59:04,VALID,1001.51,VALID,0,VALID,92.7443,VALID,0,VALID,23.2718,VALID,40,VALID,0.444922,
2011-10-29, 01:00:04,VALID,1001.5,VALID,0,VALID,92.6985,VALID,0.0815089,VALID,23.2718,VALID,40,VALID,0.390234,
2011-10-29, 01:01:04,VALID,1001.51,VALID,0,VALID,92.7901,VALID,0,VALID,23.2524,VALID,40,VALID,0.1125,
2011-10-29, 01:02:04,VALID,1001.48,VALID,0,VALID,92.8969,VALID,0,VALID,23.2329,VALID,40,VALID,0.178516,
2011-10-29, 01:03:04,VALID,1001.5,VALID,0,VALID,93.0342,VALID,0,VALID,23.2117,VALID,40,VALID,0.197656,
2011-10-29, 01:04:04,VALID,1001.49,VALID,0,VALID,93.0876,VALID,0,VALID,23.2347,VALID,40,VALID,0.294531,
2011-10-29, 01:05:04,VALID,1001.53,VALID,0,VALID,93.0647,VALID,0.0815089,VALID,23.2329,VALID,40,VALID,0.298438,
2011-10-29, 01:06:04,VALID,1001.52,VALID,0,VALID,93.1029,VALID,0,VALID,23.2329,VALID,40,VALID,0.282813,
2011-10-29, 01:07:04,VALID,1001.52,VALID,0,VALID,93.0266,VALID,0,VALID,23.194,VALID,40,VALID,0.374219,
2011-10-29, 01:08:04,VALID,1001.51,VALID,0,VALID,93.0952,VALID,0,VALID,23.1745,VALID,40,VALID,0.354297,
2011-10-29, 01:09:04,VALID,1001.53,VALID,0,VALID,93.1257,VALID,0,VALID,23.1356,VALID,40,VALID,0.360547,
2011-10-29, 01:10:04,VALID,1001.52,VALID,0,VALID,93.2554,VALID,0.0815089,VALID,23.1162,VALID,40,VALID,0.253906,
2011-10-29, 01:11:04,VALID,1001.56,VALID,0,VALID,93.3546,VALID,0.0815089,VALID,23.1374,VALID,40,VALID,0.325,
2011-10-29, 01:12:04,VALID,1001.58,VALID,0,VALID,93.3851,VALID,0,VALID,23.0984,VALID,40,VALID,0.485156,
2011-10-29, 01:13:04,VALID,1001.57,VALID,0,VALID,93.4309,VALID,0,VALID,23.0772,VALID,40,VALID,0.333594,
2011-10-29, 01:14:04,VALID,1001.57,VALID,0,VALID,93.4843,VALID,0,VALID,23.0595,VALID,40,VALID,0.276563,
2011-10-29, 01:15:04,VALID,1001.57,VALID,0,VALID,93.5682,VALID,0,VALID,23.0383,VALID,40,VALID,0.430859,
2011-10-29, 01:16:04,VALID,1001.55,VALID,0,VALID,93.6369,VALID,0,VALID,23.0595,VALID,40,VALID,0.61875,
2011-10-29, 01:17:04,VALID,1001.57,VALID,0,VALID,93.7284,VALID,0,VALID,23.0189,VALID,40,VALID,0.632031,
2011-10-29, 01:18:04,VALID,1001.58,VALID,0,VALID,93.6674,VALID,0,VALID,22.9994,VALID,40,VALID,0.449609,
2011-10-29, 01:19:04,VALID,1001.58,VALID,0,VALID,93.5987,VALID,0,VALID,22.9605,VALID,40,VALID,0.319922,
2011-10-29, 01:20:04,VALID,1001.59,VALID,0,VALID,93.6445,VALID,0,VALID,22.9216,VALID,40,VALID,0.362109,
2011-10-29, 01:21:04,VALID,1001.6,VALID,0,VALID,93.7742,VALID,0,VALID,22.9021,VALID,40,VALID,0.392578,
2011-10-29, 01:22:04,VALID,1001.62,VALID,0,VALID,93.8886,VALID,0,VALID,22.9039,VALID,40,VALID,0.133203,
2011-10-29, 01:23:04,VALID,1001.6,VALID,0,VALID,93.9725,VALID,0.0815089,VALID,22.8827,VALID,40,VALID,0.399219,
2011-10-29, 01:24:04,VALID,1001.61,VALID,0,VALID,94.0183,VALID,0,VALID,22.8632,VALID,40,VALID,0.384375,
2011-10-29, 01:25:04,VALID,1001.63,VALID,0,VALID,94.2396,VALID,0,VALID,22.8844,VALID,40,VALID,0.501953,
2011-10-29, 01:26:04,VALID,1001.64,VALID,0,VALID,94.3158,VALID,0,VALID,22.8632,VALID,40,VALID,0.556641,
2011-10-29, 01:27:04,VALID,1001.68,VALID,0,VALID,94.415,VALID,0,VALID,22.8632,VALID,40,VALID,0.497656,
2011-10-29, 01:28:04,VALID,1001.67,VALID,0,VALID,94.4913,VALID,0,VALID,22.8827,VALID,40,VALID,0.453125,
2011-10-29, 01:29:04,VALID,1001.67,VALID,0,VALID,94.4837,VALID,0,VALID,22.9233,VALID,40,VALID,0.41875,
2011-10-29, 01:30:04,VALID,1001.66,VALID,0,VALID,94.415,VALID,0,VALID,22.9021,VALID,40,VALID,0.478516,
2011-10-29, 01:31:04,VALID,1001.7,VALID,0,VALID,94.3845,VALID,0,VALID,22.9233,VALID,40,VALID,0.499609,
2011-10-29, 01:32:04,VALID,1001.68,VALID,0,VALID,94.2701,VALID,0,VALID,22.9233,VALID,40,VALID,0.635547,
2011-10-29, 01:33:04,VALID,1001.67,VALID,0,VALID,94.1709,VALID,0,VALID,22.8844,VALID,40,VALID,0.640234,
2011-10-29, 01:34:04,VALID,1001.64,VALID,0,VALID,94.3235,VALID,0.0815089,VALID,22.8827,VALID,40,VALID,0.686328,
2011-10-29, 01:35:04,VALID,1001.65,VALID,0,VALID,94.2853,VALID,0,VALID,22.9021,VALID,40,VALID,0.744531,
2011-10-29, 01:36:04,VALID,1001.62,VALID,0,VALID,94.2243,VALID,0,VALID,22.9216,VALID,40,VALID,0.657422,
2011-10-29, 01:37:04,VALID,1001.62,VALID,0,VALID,94.0336,VALID,0.0815089,VALID,22.9216,VALID,40,VALID,0.701563,
2011-10-29, 01:38:04,VALID,1001.63,VALID,0,VALID,93.9802,VALID,0,VALID,22.9021,VALID,40,VALID,0.567969,
2011-10-29, 01:39:04,VALID,1001.63,VALID,0,VALID,94.0488,VALID,0,VALID,22.8615,VALID,40,VALID,0.449609,
2011-10-29, 01:40:04,VALID,1001.62,VALID,0,VALID,94.2014,VALID,0,VALID,22.8827,VALID,40,VALID,0.461328,
2011-10-29, 01:41:04,VALID,1001.62,VALID,0,VALID,94.1785,VALID,0,VALID,22.8827,VALID,40,VALID,0.46875,
2011-10-29, 01:42:04,VALID,1001.61,VALID,0,VALID,94.1862,VALID,0,VALID,22.8632,VALID,40,VALID,0.422266,
2011-10-29, 01:43:04,VALID,1001.61,VALID,0,VALID,94.2319,VALID,0.0815089,VALID,22.8632,VALID,40,VALID,0.345703,
2011-10-29, 01:44:04,VALID,1001.6,VALID,0,VALID,94.3311,VALID,0,VALID,22.8632,VALID,40,VALID,0.386719,
2011-10-29, 01:45:04,VALID,1001.56,VALID,0,VALID,94.4761,VALID,0.0815089,VALID,22.8827,VALID,40,VALID,0.382422,
2011-10-29, 01:46:04,VALID,1001.55,VALID,0,VALID,94.5218,VALID,0,VALID,22.8827,VALID,40,VALID,0.272266,
2011-10-29, 01:47:04,VALID,1001.52,VALID,0,VALID,94.5447,VALID,0,VALID,22.9021,VALID,40,VALID,0.4375,
2011-10-29, 01:48:04,VALID,1001.54,VALID,0,VALID,94.5523,VALID,0.0815089,VALID,22.9021,VALID,40,VALID,0.351172,
2011-10-29, 01:49:04,VALID,1001.57,VALID,0,VALID,94.5829,VALID,0,VALID,22.9021,VALID,40,VALID,0.363672,
2011-10-29, 01:50:04,VALID,1001.54,VALID,0,VALID,94.5905,VALID,0,VALID,22.9004,VALID,40,VALID,0.361328,
2011-10-29, 01:51:04,VALID,1001.59,VALID,0,VALID,94.6668,VALID,0,VALID,22.9428,VALID,40,VALID,0.326172,
2011-10-29, 01:52:04,VALID,1001.58,VALID,0,VALID,94.6973,VALID,0,VALID,22.9605,VALID,40,VALID,0.467187,
2011-10-29, 01:53:04,VALID,1001.57,VALID,0,VALID,94.6286,VALID,0.0815089,VALID,22.9994,VALID,40,VALID,0.279297,
2011-10-29, 01:54:04,VALID,1001.53,VALID,0,VALID,94.5142,VALID,0.0815089,VALID,23.0012,VALID,40,VALID,0.406641,
2011-10-29, 01:55:04,VALID,1001.54,VALID,0,VALID,94.56,VALID,0.0815089,VALID,22.9994,VALID,40,VALID,0.269531,
2011-10-29, 01:56:04,VALID,1001.52,VALID,0,VALID,94.5066,VALID,0,VALID,22.9994,VALID,40,VALID,0.315234,
2011-10-29, 01:57:04,VALID,1001.49,VALID,0,VALID,94.4455,VALID,0,VALID,22.9994,VALID,40,VALID,0.363672,
2011-10-29, 01:58:04,VALID,1001.49,VALID,0,VALID,94.4913,VALID,0,VALID,22.9994,VALID,40,VALID,0.278516,
2011-10-29, 01:59:04,VALID,1001.48,VALID,0,VALID,94.4913,VALID,0.0815089,VALID,23.0189,VALID,40,VALID,0.333984,
2011-10-29, 02:00:04,VALID,1001.46,VALID,0,VALID,94.4837,VALID,0,VALID,23.0383,VALID,40,VALID,0.377344,
2011-10-29, 02:01:04,VALID,1001.47,VALID,0,VALID,94.354,VALID,0,VALID,23.0401,VALID,40,VALID,0.498828,
2011-10-29, 02:02:04,VALID,1001.44,VALID,0,VALID,94.209,VALID,0,VALID,23.0189,VALID,40,VALID,0.528516,
2011-10-29, 02:03:04,VALID,1001.43,VALID,0,VALID,94.1328,VALID,0,VALID,22.9994,VALID,40,VALID,0.374219,
2011-10-29, 02:04:04,VALID,1001.43,VALID,0,VALID,94.1328,VALID,0,VALID,22.9605,VALID,40,VALID,0.327344,
2011-10-29, 02:05:04,VALID,1001.41,VALID,0,VALID,94.1099,VALID,0,VALID,22.941,VALID,40,VALID,0.209375,
2011-10-29, 02:06:04,VALID,1001.42,VALID,0,VALID,94.1709,VALID,0,VALID,22.9216,VALID,40,VALID,0.318359,
2011-10-29, 02:07:04,VALID,1001.4,VALID,0,VALID,94.209,VALID,0,VALID,22.9216,VALID,40,VALID,0.304688,
2011-10-29, 02:08:04,VALID,1001.41,VALID,0,VALID,94.293,VALID,0,VALID,22.9216,VALID,40,VALID,0.351953,
2011-10-29, 02:09:04,VALID,1001.4,VALID,0,VALID,94.3158,VALID,0,VALID,22.9216,VALID,40,VALID,0.398438,
2011-10-29, 02:10:04,VALID,1001.38,VALID,0,VALID,94.3769,VALID,0,VALID,22.9233,VALID,40,VALID,0.45,
2011-10-29, 02:11:04,VALID,1001.37,VALID,0,VALID,94.4379,VALID,0,VALID,22.9233,VALID,40,VALID,0.348047,
2011-10-29, 02:12:04,VALID,1001.38,VALID,0,VALID,94.4532,VALID,0,VALID,22.8632,VALID,40,VALID,0.397656,
2011-10-29, 02:13:04,VALID,1001.38,VALID,0,VALID,94.5066,VALID,0,VALID,22.8827,VALID,40,VALID,0.214844,
2011-10-29, 02:14:04,VALID,1001.38,VALID,0,VALID,94.6591,VALID,0,VALID,22.9233,VALID,40,VALID,0.339453,
2011-10-29, 02:15:04,VALID,1001.38,VALID,0,VALID,94.7354,VALID,0,VALID,22.941,VALID,42,VALID,0.528125,
2011-10-29, 02:16:04,VALID,1001.37,VALID,0,VALID,94.8194,VALID,0.0815089,VALID,22.9605,VALID,42,VALID,0.466016,
2011-10-29, 02:17:04,VALID,1001.36,VALID,0,VALID,94.888,VALID,0,VALID,22.9994,VALID,42,VALID,0.434375,
2011-10-29, 02:18:04,VALID,1001.34,VALID,0,VALID,94.9185,VALID,0,VALID,22.9977,VALID,42,VALID,0.634766,
2011-10-29, 02:19:04,VALID,1001.35,VALID,0,VALID,94.9033,VALID,0,VALID,23.0189,VALID,42,VALID,0.838672,
2011-10-29, 02:20:04,VALID,1001.31,VALID,0,VALID,94.8422,VALID,0,VALID,23.0578,VALID,42,VALID,0.704297,
2011-10-29, 02:21:04,VALID,1001.29,VALID,0,VALID,94.6363,VALID,0,VALID,23.0578,VALID,42,VALID,0.593359,
2011-10-29, 02:22:04,VALID,1001.28,VALID,0,VALID,94.4455,VALID,0,VALID,23.0171,VALID,42,VALID,0.585938,
2011-10-29, 02:23:04,VALID,1001.27,VALID,0,VALID,94.3616,VALID,0,VALID,23.0189,VALID,42,VALID,0.410937,
2011-10-29, 02:24:04,VALID,1001.28,VALID,0,VALID,94.3082,VALID,0,VALID,22.9994,VALID,42,VALID,0.442578,
2011-10-29, 02:25:04,VALID,1001.29,VALID,0,VALID,94.3464,VALID,0,VALID,22.9994,VALID,42,VALID,0.389453,
2011-10-29, 02:26:04,VALID,1001.29,VALID,0,VALID,94.2701,VALID,0,VALID,23.0012,VALID,42,VALID,0.264844,
2011-10-29, 02:27:04,VALID,1001.3,VALID,0,VALID,94.2624,VALID,0,VALID,22.9817,VALID,42,VALID,0.409375,
2011-10-29, 02:28:04,VALID,1001.3,VALID,0,VALID,94.3006,VALID,0,VALID,22.98,VALID,42,VALID,0.450391,
2011-10-29, 02:29:04,VALID,1001.3,VALID,0,VALID,94.3235,VALID,0,VALID,23.0012,VALID,42,VALID,0.476563,
2011-10-29, 02:30:04,VALID,1001.28,VALID,0,VALID,94.3158,VALID,0,VALID,22.9817,VALID,42,VALID,0.353516,
2011-10-29, 02:31:04,VALID,1001.31,VALID,0,VALID,94.3235,VALID,0,VALID,22.941,VALID,42,VALID,0.444141,
2011-10-29, 02:32:04,VALID,1001.29,VALID,0,VALID,94.4227,VALID,0,VALID,22.9817,VALID,42,VALID,0.3625,
2011-10-29, 02:33:04,VALID,1001.29,VALID,0,VALID,94.3998,VALID,0,VALID,22.9817,VALID,42,VALID,0.353906,
2011-10-29, 02:34:04,VALID,1001.29,VALID,0,VALID,94.3616,VALID,0,VALID,22.9393,VALID,42,VALID,0.390234,
2011-10-29, 02:35:04,VALID,1001.28,VALID,0,VALID,94.3158,VALID,0,VALID,22.9605,VALID,42,VALID,0.485156,
2011-10-29, 02:36:04,VALID,1001.25,VALID,0,VALID,94.3235,VALID,0,VALID,22.9216,VALID,42,VALID,0.507031,
2011-10-29, 02:37:04,VALID,1001.23,VALID,0,VALID,94.3692,VALID,0,VALID,22.9428,VALID,42,VALID,0.426562,
2011-10-29, 02:38:04,VALID,1001.21,VALID,0,VALID,94.3082,VALID,0,VALID,22.9021,VALID,42,VALID,0.421875,
2011-10-29, 02:39:04,VALID,1001.17,VALID,0,VALID,94.3235,VALID,0,VALID,22.9216,VALID,42,VALID,0.339453,
2011-10-29, 02:40:04,VALID,1001.13,VALID,0,VALID,94.3692,VALID,0,VALID,22.8827,VALID,42,VALID,0.495703,
2011-10-29, 02:41:04,VALID,1001.12,VALID,0,VALID,94.415,VALID,0,VALID,22.9021,VALID,42,VALID,0.372656,
2011-10-29, 02:42:04,VALID,1001.12,VALID,0,VALID,94.4303,VALID,0,VALID,22.9039,VALID,42,VALID,0.438281,
2011-10-29, 02:43:04,VALID,1001.08,VALID,0,VALID,94.56,VALID,0,VALID,22.9233,VALID,42,VALID,0.347656,
2011-10-29, 02:44:04,VALID,1001.09,VALID,0,VALID,94.5829,VALID,0,VALID,22.8827,VALID,42,VALID,0.278516,
2011-10-29, 02:45:04,VALID,1001.06,VALID,0,VALID,94.5752,VALID,0,VALID,22.9021,VALID,42,VALID,0.325781,
2011-10-29, 02:46:04,VALID,1001.04,VALID,0,VALID,94.7049,VALID,0,VALID,22.941,VALID,42,VALID,0.449219,
2011-10-29, 02:47:04,VALID,1001.01,VALID,0,VALID,94.8422,VALID,0,VALID,22.9605,VALID,42,VALID,0.511328,
2011-10-29, 02:48:04,VALID,1001.02,VALID,0,VALID,94.9109,VALID,0,VALID,22.9994,VALID,42,VALID,0.402734,
2011-10-29, 02:49:04,VALID,1001.04,VALID,0,VALID,94.9872,VALID,0,VALID,23.0578,VALID,42,VALID,0.380859,
2011-10-29, 02:50:04,VALID,1001.01,VALID,0,VALID,94.9872,VALID,0,VALID,23.0772,VALID,42,VALID,0.346484,
2011-10-29, 02:51:04,VALID,1001.03,VALID,0,VALID,94.8956,VALID,0,VALID,23.1162,VALID,42,VALID,0.386719,
2011-10-29, 02:52:04,VALID,1001.02,VALID,0,VALID,94.8117,VALID,0,VALID,23.1551,VALID,42,VALID,0.326562,
2011-10-29, 02:53:04,VALID,1001.03,VALID,0,VALID,94.7202,VALID,0,VALID,23.1745,VALID,42,VALID,0.439063,
2011-10-29, 02:54:04,VALID,1001.06,VALID,0,VALID,94.7049,VALID,0,VALID,23.194,VALID,42,VALID,0.46875,
2011-10-29, 02:55:04,VALID,1001.03,VALID,0,VALID,94.5523,VALID,0,VALID,23.2134,VALID,42,VALID,0.314453,
2011-10-29, 02:56:04,VALID,1001.03,VALID,0,VALID,94.4455,VALID,0,VALID,23.2329,VALID,42,VALID,0.497656,
2011-10-29, 02:57:04,VALID,1001.02,VALID,0,VALID,94.2396,VALID,0.0815089,VALID,23.2329,VALID,42,VALID,0.659375,
2011-10-29, 02:58:04,VALID,1001.01,VALID,0,VALID,94.1404,VALID,0.0815089,VALID,23.2329,VALID,41,VALID,0.761719,
2011-10-29, 02:59:04,VALID,1001.02,VALID,0,VALID,93.9191,VALID,0,VALID,23.1745,VALID,41,VALID,0.60625,
2011-10-29, 03:00:04,VALID,1001,VALID,0,VALID,93.7437,VALID,0,VALID,23.1356,VALID,41,VALID,0.588281,
2011-10-29, 03:01:04,VALID,1000.98,VALID,0,VALID,93.82,VALID,0,VALID,23.1356,VALID,41,VALID,0.498828,
2011-10-29, 03:02:04,VALID,1000.98,VALID,0,VALID,93.7132,VALID,0.0815089,VALID,23.0967,VALID,41,VALID,0.428516,
2011-10-29, 03:03:04,VALID,1000.98,VALID,0,VALID,93.6979,VALID,0,VALID,23.0595,VALID,41,VALID,0.345313,
2011-10-29, 03:04:04,VALID,1000.98,VALID,0,VALID,93.7513,VALID,0,VALID,23.0206,VALID,41,VALID,0.367969,
2011-10-29, 03:05:04,VALID,1000.99,VALID,0,VALID,93.7742,VALID,0,VALID,23.0224,VALID,41,VALID,0.314844,
2011-10-29, 03:06:04,VALID,1001,VALID,0,VALID,93.8505,VALID,0,VALID,22.9834,VALID,41,VALID,0.291797,
2011-10-29, 03:07:04,VALID,1001,VALID,0,VALID,93.9649,VALID,0,VALID,22.9622,VALID,41,VALID,0.283594,
2011-10-29, 03:08:04,VALID,1001.01,VALID,0,VALID,94.1251,VALID,0,VALID,22.9622,VALID,41,VALID,0.334375,
2011-10-29, 03:09:04,VALID,1001.01,VALID,0,VALID,94.2853,VALID,0,VALID,22.964,VALID,41,VALID,0.205859,
2011-10-29, 03:10:04,VALID,1000.99,VALID,0,VALID,94.5218,VALID,0,VALID,23.0012,VALID,41,VALID,0.338672,
2011-10-29, 03:11:04,VALID,1000.98,VALID,0,VALID,94.6363,VALID,0,VALID,23.0206,VALID,41,VALID,0.375781,
2011-10-29, 03:12:04,VALID,1000.98,VALID,0,VALID,94.7507,VALID,0,VALID,23.0807,VALID,41,VALID,0.435547,
2011-10-29, 03:13:04,VALID,1000.99,VALID,0,VALID,94.7812,VALID,0,VALID,23.079,VALID,41,VALID,0.407813,
2011-10-29, 03:14:04,VALID,1000.97,VALID,0,VALID,94.6057,VALID,0,VALID,23.1002,VALID,41,VALID,0.515234,
2011-10-29, 03:15:04,VALID,1000.97,VALID,0,VALID,94.4989,VALID,0,VALID,23.1002,VALID,41,VALID,0.412109,
2011-10-29, 03:16:04,VALID,1000.94,VALID,0,VALID,94.3692,VALID,0,VALID,23.0401,VALID,41,VALID,0.384375,
2011-10-29, 03:17:04,VALID,1000.96,VALID,0,VALID,94.3921,VALID,0,VALID,23.0206,VALID,41,VALID,0.4625,
2011-10-29, 03:18:04,VALID,1000.97,VALID,0,VALID,94.5295,VALID,0,VALID,23.0206,VALID,41,VALID,0.295703,
2011-10-29, 03:19:04,VALID,1000.96,VALID,0,VALID,94.6744,VALID,0,VALID,23.0171,VALID,41,VALID,0.292188,
2011-10-29, 03:20:04,VALID,1000.95,VALID,0,VALID,94.7049,VALID,0,VALID,23.0578,VALID,41,VALID,0.221875,
2011-10-29, 03:21:04,VALID,1000.97,VALID,0,VALID,94.7507,VALID,0,VALID,23.0984,VALID,41,VALID,0.508203,
2011-10-29, 03:22:04,VALID,1000.98,VALID,0,VALID,94.9338,VALID,0,VALID,23.1162,VALID,41,VALID,0.354297,
2011-10-29, 03:23:04,VALID,1000.99,VALID,0,VALID,94.888,VALID,0,VALID,23.1356,VALID,41,VALID,0.367188,
2011-10-29, 03:24:04,VALID,1000.94,VALID,0,VALID,94.766,VALID,0.0815089,VALID,23.1356,VALID,41,VALID,0.450781,
2011-10-29, 03:25:04,VALID,1000.95,VALID,0,VALID,94.8117,VALID,0,VALID,23.1551,VALID,41,VALID,0.438281,
2011-10-29, 03:26:04,VALID,1000.95,VALID,0,VALID,94.7431,VALID,0,VALID,23.1568,VALID,40,VALID,0.709766,
2011-10-29, 03:27:04,VALID,1000.95,VALID,0,VALID,94.5447,VALID,0,VALID,23.1374,VALID,39,VALID,0.701563,
2011-10-29, 03:28:04,VALID,1000.95,VALID,0,VALID,94.3921,VALID,0,VALID,23.0984,VALID,39,VALID,0.628516,
2011-10-29, 03:29:04,VALID,1000.93,VALID,0,VALID,94.5295,VALID,0,VALID,23.0967,VALID,39,VALID,0.554688,
2011-10-29, 03:30:04,VALID,1000.93,VALID,0,VALID,94.5905,VALID,0,VALID,23.1179,VALID,39,VALID,0.639844,
2011-10-29, 03:31:04,VALID,1000.91,VALID,0,VALID,94.3769,VALID,0,VALID,23.1374,VALID,39,VALID,0.377344,
2011-10-29, 03:32:04,VALID,1000.92,VALID,0,VALID,94.2853,VALID,0.0815089,VALID,23.0967,VALID,39,VALID,0.398047,
2011-10-29, 03:33:04,VALID,1000.89,VALID,0,VALID,94.3158,VALID,0,VALID,23.1179,VALID,39,VALID,0.347266,
2011-10-29, 03:34:04,VALID,1000.92,VALID,0,VALID,94.4532,VALID,0,VALID,23.0772,VALID,39,VALID,0.317969,
2011-10-29, 03:35:04,VALID,1000.94,VALID,0,VALID,94.6439,VALID,0,VALID,23.1162,VALID,39,VALID,0.328906,
2011-10-29, 03:36:04,VALID,1000.95,VALID,0,VALID,94.9033,VALID,0,VALID,23.1763,VALID,39,VALID,0.280859,
2011-10-29, 03:37:04,VALID,1000.99,VALID,0,VALID,94.8575,VALID,0,VALID,23.194,VALID,39,VALID,0.184766,
2011-10-29, 03:38:04,VALID,1001,VALID,0,VALID,94.9109,VALID,0,VALID,23.2134,VALID,39,VALID,0.289063,
2011-10-29, 03:39:04,VALID,1001.02,VALID,0,VALID,94.8346,VALID,0,VALID,23.2541,VALID,39,VALID,0.30625,
2011-10-29, 03:40:04,VALID,1001.05,VALID,0,VALID,94.8117,VALID,0,VALID,23.2329,VALID,39,VALID,0.409375,
2011-10-29, 03:41:04,VALID,1001.04,VALID,0,VALID,94.8346,VALID,0,VALID,23.2718,VALID,39,VALID,0.423438,
2011-10-29, 03:42:04,VALID,1001.08,VALID,0,VALID,94.8194,VALID,0,VALID,23.2736,VALID,39,VALID,0.490625,
2011-10-29, 03:43:04,VALID,1001.09,VALID,0,VALID,94.7888,VALID,0,VALID,23.2718,VALID,39,VALID,0.463281,
2011-10-29, 03:44:04,VALID,1001.1,VALID,0,VALID,94.8117,VALID,0,VALID,23.3125,VALID,39,VALID,0.504687,